Showing default

FOSSASAT2E20 (TAT-O), 63003

Orbit data source: Space-Track

FOSSASAT2E20 (TAT-O), 63003 is a payload satellite owned by Fossa Systems (ES) in SSO that was launched on Tue, 14 Jan 2025 UTC via an FALCON 9 launch vehicle from the Air Force Western Test Range (AFWTR). Payload-class satellites include a variety of spacecraft equipped with specific instruments for various scientific and technological missions. These include communications satellites like Starlink; space stations such as the ISS; scientific satellites like the Hubble; Earth observation satellites from companies like Planet Labs, Umbra, and HawkEye 360; GPS; miniature CubeSats for education and research; and military/defense satellites.

Loading next visibility...
Identifier
63003, 2025-009DN
Orbit
SSO
Country
Flag of ESES / SPN
Related business
Manufacturer
Fossa Systems
Mission
Operational Commercial Communications
Bus & Motor
CUBESAT 3U, Unknown motor
Mass
4 kg wet, 4 kg dry
Launch date (UTC)
2025-01-14 (1 year ago)
Launch vehicle
FALCON 9
Launch site
Air Force Western Test Range (AFWTR)
Object type
Payload
Rocket body
Debris
Shape & HBR
Box + 2 Pan, 0.4 m
Radar Cross Section
0.035 m², Medium (>0.1 m² and < 1m²)

Expand to show TLE details & history
Last TLE update: 1 day ago

TLE from 1 day ago
0 FOSSASAT2E20 (TAT-O)
1 63003U 25009DN  26170.44611854  .00010970  00000-0  38280-3 0  9998
2 63003  97.3163 246.2845 0001862 349.4420  10.6782 15.29773781136854
Epoch: 2026-06-19T10:42Z
TLE epoch observation values (Epoch: 2026-06-19T10:42:24.641Z)
Latitude
0.00003°
Longitude
178.00685°
Altitude
478.34 km
Speed
7.627 km/s
True Right ascension
16h 25m 08s
True Declination
0° 00' 00"
Sunlit
Object was in full shadow at epoch
Visualization orbit readout
Latitude
Unknown
Longitude
Unknown
Altitude
Unknown
Speed
Unknown
Apparent Right ascension
Unknown
Apparent Declination
Unknown
Sunlit
N/A
Visualization observer readout
Local Sidereal Time
07:19:26
Azimuth
Unknown
Elevation
Unknown
Doppler factor
Unknown
Orbital elements
Apogee altitude
474.713 km
Perigee altitude
472.161 km
Semi-major axis
6,851.574 km
Eccentricity
0.00019
Inclination
97.3163°
RAAN
246.2845°
Arg. of periapsis
349.442°
True anomaly
10.68215°
Mean anomaly
10.6782°
Eccentric anomaly
10.68018°
Mean motion
3.82699 °/min
Orbital period
94.07 mins
BSTAR
0.0003828
Loading maneuver chart data...
Computing Atmospheric mass density...
Loading historical data...
Loading historical data...
Loading historical data...
Loading historical data...
Loading historical data...
Loading historical data...
Loading historical data...

Documentation

Showing up to 5 results
|